Location: Doverdale
(52.2833°N, 2.2000°W)
Time: 03:25:06
(UTC+00:00)

Cosmos 1980 Rocket - Pass Details

Date: 09 March 2021
Orbit: 828 x 851 km, 71.0° (Epoch: 15 April)

Event Time Altitude Azimuth Distance (km) Brightness Sun altitude
Rises 22:38:09 0° 325° (NW) 3,428 6.3 -37.5°
Reaches altitude 10° 22:41:32 10° 345° (NNW) 2,491 5.3 -37.8°
Enters shadow 22:44:59 17° 23° (NNE) 2,026 4.4 -38.0°
